Regional Weather Roundup
Issued by NWS

Home | Current Version | Previous Version | Text Only | Print | Product List | Glossary On
Versions: 1 2 3 4 5 6 7 8 9 10 11 12 13 14 15 16 17 18 19 20 21 22 23 24 25 26 27 28 29 30 31 32 33 34 35 36 37 38 39 40 41 42 43 44 45 46 47 48 49 50
000
ASUS45 KCYS 200410
RWRWY

WYOMING REGIONAL WEATHER ROUNDUP
NATIONAL WEATHER SERVICE CHEYENNE WY
1000 PM MDT THU OCT 19 2017

NOTE:  "FAIR" INDICATES FEW OR NO CLOUDS BELOW 12,000 FEET
WITH NO SIGNIFICANT WEATHER AND/OR OBSTRUCTIONS TO VISIBILITY.

WYZ001-200500-
YELLOWSTONE NATIONAL PARK

CITY           SKY/WX    TMP DP  RH WIND       PRES   REMARKS
LK YELLOWSTONE   N/A     27  22  81 NW3       29.92F
W YELLOWSTONE  NOT AVBL

$$
WYZ002>013-054>058-071-098>099-200500-
NORTHERN WYOMING

CITY           SKY/WX    TMP DP  RH WIND       PRES   REMARKS
JACKSON        FAIR      41  15  35 S3        29.87F
CODY           FAIR      57  16  20 S12       29.74F
GREYBULL       FAIR      56  20  24 S6        29.68F
WORLAND        FAIR      47  21  35 SE8       29.70F
SHERIDAN       FAIR      49  28  44 CALM      29.65S
BUFFALO        FAIR      63   3   9 S15       29.70F
GILLETTE       FAIR      63  14  15 S18       29.70S
HULETT         FAIR      68  19  15 S16G25    29.71F
NEWCASTLE      FAIR      61  18  18 SE15G21   29.77F

$$
WYZ014>020-022>026-101>103-200500-
CENTRAL WYOMING

CITY           SKY/WX    TMP DP  RH WIND       PRES   REMARKS
BIG PINEY      CLOUDY    38  19  46 CALM      29.94S
PINEDALE       CLOUDY    37  19  48 W3        29.95F
DUBOIS         FAIR      37  14  38 W17       29.89F WCI  28
LANDER         FAIR      57  16  20 SE6       29.79F
RIVERTON       FAIR      53  18  25 SW10      29.80F
CASPER         FAIR      49  25  39 SW9       29.83F
DOUGLAS        FAIR      52  26  36 SE7       29.83F

$$
WYZ021-027>030-104>119-200500-
SOUTHERN WYOMING

CITY           SKY/WX    TMP DP  RH WIND       PRES   REMARKS
EVANSTON       FAIR      50  30  46 S9        29.95F
KEMMERER       MOCLDY    52  10  19 S3        29.96S
FORT BRIDGER   FAIR      53  27  35 SW12      29.98S
ROCK SPRINGS   FAIR      51  23  33 SW9       29.93F
DIXON          FAIR      46  26  47 NE3       30.00F
RAWLINS        FAIR      47  26  44 W7        29.96F
SARATOGA       FAIR      50  27  40 S13       29.99S
LARAMIE        FAIR      40  24  53 SW5       30.00F
CHEYENNE       FAIR      46  27  47 W7        29.93F
TORRINGTON     FAIR      56  25  30 SE7       29.82R
PINE BLUFFS    FAIR      50  32  50 SW7       29.91S

$$



USA.gov is the U.S. government's official web portal to all federal, state and local government web resources and services.